Location: ???? ?????????
(31.1304°N, 31.7111°E)
Time: 19:55:56
(UTC+00:00)

Tiros 1 despin weight - Visible Passes

Search period start: 04 March 2021 00:00
Search period end: 14 March 2021 00:00
Orbit: 593 x 642 km, 48.2° (Epoch: 04 March)

Date Brightness Start Highest point End Pass type
(mag) Time Alt. Az. Time Alt. Az. Time Alt. Az.
04 Mar ? 02:22:04 17° N 02:24:07 22° NNE 02:27:47 10° ENE visible
05 Mar ? 02:38:01 19° NNW 02:40:46 37° NNE 02:45:07 10° ESE visible
06 Mar ? 01:17:02 14° NE 01:17:02 14° NE 01:18:09 10° ENE visible
06 Mar ? 02:54:07 21° NW 02:57:15 72° NE 03:01:55 10° SE visible
07 Mar ? 01:33:16 23° ENE 01:33:16 23° ENE 01:35:46 10° E visible
07 Mar ? 03:10:21 19° WNW 03:13:34 54° SW 03:18:07 10° SSE visible
08 Mar ? 01:49:40 37° E 01:49:40 37° E 01:52:54 10° ESE visible
08 Mar ? 03:26:46 14° W 03:29:44 25° SW 03:33:31 10° S visible
08 Mar ? 17:28:40 10° S 17:30:43 21° SSE 17:30:43 21° SSE visible
09 Mar ? 02:06:14 45° SE 02:06:14 45° SE 02:09:29 10° SE visible
09 Mar ? 03:44:41 10° WSW 03:45:47 11° SW 03:46:54 10° SW visible
09 Mar ? 17:44:16 10° SW 17:47:34 46° SSW 17:47:34 46° SSW visible
10 Mar ? 02:22:56 27° S 02:22:56 27° S 02:25:23 10° SSE visible
10 Mar ? 16:20:55 10° S 16:23:50 17° SE 16:26:47 10° E visible
10 Mar ? 18:00:36 10° WSW 18:04:19 53° WNW 18:04:19 53° WNW visible
11 Mar ? 02:39:46 12° SSW 02:39:46 12° SSW 02:40:19 10° S visible
11 Mar ? 16:35:50 10° SSW 16:39:57 39° SE 16:43:50 11° ENE visible
11 Mar ? 18:17:32 10° W 18:20:57 30° NW 18:20:57 30° NW visible
12 Mar ? 16:51:46 10° SW 16:56:12 88° SE 17:00:18 12° NE visible
12 Mar ? 18:35:00 10° WNW 18:37:24 18° NW 18:37:24 18° NW visible
13 Mar ? 17:08:21 10° WSW 17:12:36 44° NW 17:16:38 12° NE visible
13 Mar ? 18:53:01 10° NW 18:53:42 11° NW 18:53:42 11° NW visible
